Location: The Saddle
(36.8333°N, 80.3417°W)
Time: 02:31:34
(UTC-04:00)

ISS - Visible Passes

Search period start: 03 October 2023 00:00
Search period end: 13 October 2023 00:00
Orbit: 414 x 421 km, 51.6° (Epoch: 02 October)

Date Brightness Start Highest point End Pass type
(mag) Time Alt. Az. Time Alt. Az. Time Alt. Az.
03 Oct -3.2 19:31:23 10° NW 19:34:35 42° NE 19:37:47 10° ESE visible
03 Oct -1.1 21:08:53 10° W 21:10:50 16° WSW 21:10:50 16° WSW visible
04 Oct -2.1 20:20:06 10° WNW 20:23:04 30° SW 20:25:14 15° S visible
05 Oct -3.2 19:31:40 10° WNW 19:34:58 58° SW 19:38:14 10° SE visible
07 Oct -0.9 19:32:36 10° W 19:34:56 18° SW 19:37:15 10° S visible
